Aérodrome :
LOGIN :

S'inscrire | Disclaimer

   EN    FR    IT 

 










Légende :    VFR   VFR Marginal   IFR   IFR Intensif   IFR Très Intensif
Visi : 
Plafond : 
>= 8 km
>= 3000ft
5 à 8 km
1000 à 3000 ft
1500m à 5 km
500 à 1000 ft
800 à 1500m
200 à 500 ft
< 800m
< 200 ft
Symboles :   Orages  Brouillard  Fortes neiges  Fortes précipitations  Vent > 20 kt
SIGMETs :   Divers  Orages  Givrage  Turbulence  Onde Orograph.  Cendres Volcan.







- Altitude de l'aérodrome : 863 ft
- Code IATA : ZAZ


LEZG - Zaragoza Aragon

DERNIER METAR :
  • 231730Z 28010KT CAVOK 14/10 Q1027

METARs EXPIRÉS :
  • 231700Z 29012KT CAVOK 15/10 Q1027
  • 231630Z 29014KT CAVOK 16/10 Q1027
  • 231600Z 29015KT CAVOK 17/10 Q1026
  • 231530Z 30016KT CAVOK 17/09 Q1026
  • 231500Z 31016KT CAVOK 17/09 Q1026

TAF TAF LEZG
Valide du 23 à 18h jusqu'au 24 à 18h UTC


231700Z 2318/2418 28010KT 9999 FEW030 TX16/2414Z TN05/2407Z
BECMG 2400/2402 VRB03KT
PROB40
TEMPO 2405/2410 0800 BCFG BKN005
BECMG 2410/2412 11008KT
Pas de NOTAMs connus pour ce terrain.



MET'MAP, la Météo Aéronautique d'un coup d'oeil ! - Copyright ORBIFLY Décembre 2007 - Disclaimer

ORBIFLY MET'MAP TEAM :

Programmation & Développement : Alexandra Zaïnal
Conception & Développement : Baudouin d'Aumeries
Co-Programmation & Développement : Marc-Olivier Méhu
Soutien technique & logistique : Manuel Goepfert

Contact : metmap@orbifly.com




SOURCES & CREDITS :

   NOAA